Regional Weather Roundup
Issued by NWS

Home | Current Version | Previous Version | Graphics & Text | Print | Product List | Glossary On
Versions: 1 2 3 4 5 6 7 8 9 10 11 12 13 14 15 16 17 18 19 20 21 22 23 24 25 26 27 28 29 30 31 32 33 34 35 36 37 38 39 40 41 42 43 44 45 46 47 48 49 50
000
ASUS45 KABQ 051501
RWRNM
WEATHER ROUNDUP FOR NEW MEXICO
NATIONAL WEATHER SERVICE ALBUQUERQUE NM
800 AM MST THU MAR 05 2015

NOTE: "FAIR" MEANS FEW OR NO CLOUDS BELOW 12,000 FEET AGL WITH NO
       SIGNIFICANT WEATHER OR OBSTRUCTIONS TO VISION.

      THIS PRODUCT IS RELEASED AS TWO VERSIONS.  ONE VERSION NEAR
      THE TOP OF THE HOUR CONTAINING PRELIMINARY DATA FROM ALBUQUERQUE
      AND OTHER STATIONS.  A FINAL VERSION WITH ADDITIONAL DATA IS
      ISSUED ABOUT 10 MINUTES AFTER THE HOUR.

NMZ501-503-504-510>518-051600-
NORTHWEST PLATEAU/NORTHCENTRAL MOUNTAINS

CITY           SKY/WX    TMP DP  RH WIND       PRES   REMARKS
FARMINGTON     SUNNY     23  13  65 E6        30.39R WCI  16
SANTA FE       SUNNY     22  16  78 N13       30.34R WCI  10
TAOS           MOSUNNY   14   5  67 N6        30.36R WCI   5
ANGEL FIRE     FAIR     -14 -19  79 CALM      30.31S

$$
NMZ402-403-502-505>509-051600-
WESTCENTRAL MOUNTAINS/SOUTHWEST MOUNTAINS

CITY           SKY/WX    TMP DP  RH WIND       PRES   REMARKS
GALLUP         SUNNY     23  17  78 CALM      30.37R
SILVER CITY    SUNNY     30  18  59 SW6       30.37R WCI  24

$$
NMZ407-409-411-412-051600-
SOUTHERN DESERTS

CITY           SKY/WX    TMP DP  RH WIND       PRES   REMARKS
DEMING         SUNNY     33  23  66 E15       30.40R WCI  23
HOLLOMAN AFB   SUNNY     31  21  66 SW10      30.42R WCI  22
ALAMOGORDO     SUNNY     30  23  74 S8        30.43R WCI  23
T OR C         SUNNY     31  18  58 N13       30.39R WCI  21

$$
NMZ519>523-051600-
CENTRAL VALLEYS/CENTRAL HIGHLANDS

CITY           SKY/WX    TMP DP  RH WIND       PRES   REMARKS
ALBUQUERQUE    SUNNY     26  18  71 N5        30.40R WCI  20
DOUBLE EAGLE   SUNNY     27  16  63 NW6       30.38R WCI  20
MORIARTY ARPT  CLOUDY    19  16  90 CALM      30.38R FOG
CLINES CORNERS PTSUNNY   20  16  84 NW13      30.28R WCI   7
BELEN          FAIR      28  21  75 NW9       30.41R WCI  19
SOCORRO        NOT AVBL

$$
NMZ524>526-539-540-051600-
SOUTHCENTRAL MOUNTAINS

CITY           SKY/WX    TMP DP  RH WIND       PRES   REMARKS
RUIDOSO        NOT AVBL

$$
NMZ527>531-051600-
NORTHEAST HIGHLANDS/NORTHEAST PLAINS

CITY           SKY/WX    TMP DP  RH WIND       PRES   REMARKS
LAS VEGAS      MOSUNNY   13  10  88 CALM      30.30R
RATON          SUNNY      3  -2  79 NE8       30.30R WCI -10
CLAYTON        SUNNY     16  10  77 SW10      30.33R WCI   4

$$
NMZ532>537-051600-
EASTCENTRAL PLAINS

CITY           SKY/WX    TMP DP  RH WIND       PRES   REMARKS
TUCUMCARI      MOSUNNY   24  20  84 SW7       30.44R WCI  16
CANNON AFB     NOT AVBL
CLOVIS AIRPORT SUNNY     21  18  86 SW7       30.45R WCI  13

$$
NMZ028-029-538-051600-
SOUTHEAST PLAINS

CITY           SKY/WX    TMP DP  RH WIND       PRES   REMARKS
ROSWELL        CLOUDY    27  20  75 SE5       30.51R WCI  22
ARTESIA        CLOUDY    27  23  86 CALM      30.54R
CARLSBAD       CLOUDY    29  20  69 CALM      30.53R
HOBBS          SUNNY     27  19  74 CALM      30.52R


$$


USA.gov is the U.S. government's official web portal to all federal, state and local government web resources and services.